Location: Dal�� Lhota
(48.7500°N, 14.0167°E)
Time: 15:58:24
(UTC+00:00)

Courier 1B Rocket - Visible Passes

Search period start: 28 July 2021 00:00
Search period end: 07 August 2021 00:00
Orbit: 920 x 1202 km, 28.2° (Epoch: 27 July)

Date Brightness Start Highest point End Pass type
(mag) Time Alt. Az. Time Alt. Az. Time Alt. Az.
31 Jul 6.8 02:24:21 10° S 02:25:23 10° S 02:26:26 10° SSE visible
02 Aug 6.8 02:14:50 10° SSW 02:16:11 11° S 02:17:54 10° SSE visible
04 Aug 6.8 02:06:51 11° S 02:06:57 11° S 02:08:37 10° S visible
